Weather History for KAGS - February, 2013

Change the Weather History Date:

Thursday, February 7, 2013

  Actual Average Record
Temperature  
Mean Temperature 44 °F 48 °F  
Max Temperature 51 °F 61 °F 80 °F (1999)
Min Temperature 37 °F 35 °F 13 °F (1895)
Degree Days  
Heating Degree Days 21 17  
Month to date heating degree days 137 125  
Since 1 July heating degree days 1462 1710  
Cooling Degree Days 0 0  
Month to date cooling degree days 0 0  
Year to date cooling degree days 15 1  
Moisture  
Dew Point 45 °F    
Average Humidity 86    
Maximum Humidity 93    
Minimum Humidity 79    
Precipitation  
Precipitation 3.10 in 0.13 in 3.10 in (2013)
Month to date precipitation 3.10 0.92  
Year to date precipitation 3.70 4.83  
Sea Level Pressure  
Sea Level Pressure 30.04 in    
Wind  
Wind Speed 7 mph (NNE)    
Max Wind Speed 23 mph    
Max Gust Speed 31 mph    
Visibility 5 miles    
Events Rain    
T = Trace of Precipitation, MM = Missing Value Source: NWS Daily Summary

Daily Weather History Graph

Daily Weather History Graph

Search for Another Location

Airport or City:

Trip Planner

Search our weather history database for the weather conditions in past years. The results will help you decide how hot, cold, wet, or windy it might be!

Date:

Astronomy

Feb. 07, 2013 Rise Set
Actual Time 7:18 AM EST 6:05 PM EST
Civil Twilight 6:53 AM EST 6:31 PM EST
Nautical Twilight 6:23 AM EST 7:00 PM EST
Astronomical Twilight 5:54 AM EST 7:29 PM EST
Moon 4:52 AM EST (2/7) 3:32 PM EST (2/7)
Length of Visible Light 11h 38m
Length of Day
10h 46m
Waning Crescent, 9% of the Moon is Illuminated
Feb 7
Waning Crescent
Feb 10
New
Feb 17
First Quarter
Feb 25
Full
Mar 4
Last Quarter

Hourly Weather History & Observations

Time (EST) Temp. Windchill Dew Point Humidity Pressure Visibility Wind Dir Wind Speed Gust Speed Precip Events Conditions
12:53 AM 39.0 °F - 34.0 °F 82% 30.15 in 10.0 mi Calm Calm - N/A   Clear
1:53 AM 39.0 °F - 34.0 °F 82% 30.14 in 10.0 mi Calm Calm - N/A   Clear
2:53 AM 37.0 °F - 34.0 °F 89% 30.14 in 10.0 mi Calm Calm - N/A   Clear
3:53 AM 39.9 °F - 35.1 °F 83% 30.15 in 10.0 mi Calm Calm - N/A   Clear
4:53 AM 39.9 °F - 36.0 °F 86% 30.17 in 10.0 mi Calm Calm - N/A   Mostly Cloudy
5:53 AM 41.0 °F - 37.9 °F 89% 30.17 in 10.0 mi Calm Calm - N/A   Partly Cloudy
6:53 AM 43.0 °F - 39.0 °F 86% 30.15 in 10.0 mi Calm Calm - N/A   Clear
7:53 AM 46.9 °F - 43.0 °F 86% 30.14 in 7.0 mi Calm Calm - N/A   Clear
8:53 AM 48.9 °F - 45.0 °F 86% 30.14 in 5.0 mi North 6.9 mph - N/A   Overcast
9:53 AM 51.1 °F - 46.9 °F 86% 30.14 in 3.0 mi North 5.8 mph - 0.02 in Rain Light Rain
10:05 AM 51.8 °F - 48.2 °F 88% 30.14 in 3.0 mi North 5.8 mph - 0.01 in Rain Rain
10:15 AM 51.8 °F - 48.2 °F 88% 30.14 in 3.0 mi North 5.8 mph - 0.03 in Rain Rain
10:53 AM 51.1 °F - 48.9 °F 92% 30.14 in 3.0 mi North 5.8 mph - 0.07 in Rain Light Rain
11:02 AM 51.8 °F - 48.2 °F 88% 30.14 in 3.0 mi NNE 3.5 mph - 0.01 in Rain Rain
11:53 AM 51.1 °F - 48.0 °F 89% 30.12 in 3.0 mi NE 6.9 mph - 0.08 in Rain Rain
12:09 PM 51.8 °F - 48.2 °F 88% 30.11 in 2.5 mi NNE 5.8 mph - 0.03 in Rain Rain
12:21 PM 50.0 °F - 48.2 °F 94% 30.12 in 2.5 mi North 5.8 mph - 0.04 in Rain Rain
12:28 PM 50.0 °F - 48.2 °F 94% 30.11 in 2.5 mi North 4.6 mph - 0.05 in Rain Rain
12:53 PM 50.0 °F - 48.0 °F 93% 30.09 in 1.2 mi NNE 8.1 mph - 0.12 in Rain Rain
1:53 PM 50.0 °F - 48.0 °F 93% 30.04 in 1.5 mi NNE 8.1 mph - 0.29 in Rain Heavy Rain
2:10 PM 50.0 °F - 48.2 °F 94% 30.03 in 1.2 mi NNE 10.4 mph - 0.12 in Rain Heavy Rain
2:53 PM 50.0 °F - 48.0 °F 93% 30.02 in 1.5 mi North 10.4 mph - 0.34 in Rain Heavy Rain
3:53 PM 50.0 °F - 48.0 °F 93% 29.99 in 1.5 mi NE 12.7 mph - 0.32 in Rain Heavy Rain
4:28 PM 50.0 °F - 48.2 °F 94% 29.98 in 2.0 mi NNE 10.4 mph - 0.13 in Rain Rain
4:53 PM 50.0 °F - 48.0 °F 93% 29.97 in 2.5 mi NNE 6.9 mph - 0.20 in Rain Rain
4:56 PM 50.0 °F - 48.2 °F 94% 29.97 in 3.0 mi North 6.9 mph - 0.01 in Rain Rain
5:06 PM 50.0 °F - 46.4 °F 87% 29.96 in 2.5 mi NE 10.4 mph - 0.04 in Rain Heavy Rain
5:53 PM 48.9 °F - 46.9 °F 93% 29.92 in 2.5 mi NE 11.5 mph - 0.27 in Rain Rain
6:53 PM 50.0 °F - 46.9 °F 89% 29.89 in 2.0 mi NE 9.2 mph - 0.31 in Rain Heavy Rain
7:53 PM 48.9 °F - 46.9 °F 93% 29.89 in 2.5 mi NNE 15.0 mph - 0.50 in Rain Heavy Rain
8:10 PM 48.2 °F - 46.4 °F 93% 29.91 in 1.0 mi NNW 18.4 mph - 0.14 in Rain Heavy Rain
8:53 PM 48.0 °F - 46.0 °F 93% 29.92 in 2.0 mi North 10.4 mph - 0.43 in Rain Rain
9:14 PM 48.2 °F - 44.6 °F 87% 29.90 in 2.0 mi NE 19.6 mph 26.5 mph 0.02 in Rain Light Rain
9:24 PM 48.2 °F - 44.6 °F 87% 29.89 in 2.0 mi ENE 20.7 mph 31.1 mph 0.02 in Rain Rain
9:53 PM 46.9 °F - 45.0 °F 93% 29.90 in 2.0 mi North 11.5 mph - 0.14 in Rain Light Rain
10:00 PM 46.4 °F 40.4 °F 44.6 °F 93% 29.89 in 9.0 mi North 13.8 mph - 0.01 in Rain Light Rain
10:12 PM 46.4 °F 40.1 °F 44.6 °F 93% 29.89 in 10.0 mi North 15.0 mph - 0.01 in Rain Light Rain
10:53 PM 48.0 °F - 45.0 °F 89% 29.89 in 10.0 mi North 12.7 mph 20.7 mph 0.01 in   Overcast
11:53 PM 46.9 °F - 44.1 °F 90% 29.90 in 10.0 mi North 11.5 mph - N/A   Overcast